Time,TemperatureF,DewpointF,PressureIn,WindDirection,WindDirectionDegrees,WindSpeedMPH,WindSpeedGustMPH,Humidity,HourlyPrecipIn,Conditions,Clouds,dailyrainin,SoftwareType,DateUTC
2013-10-18 00:23:00,41.0,-99.9,29.85,West,266,0.0,-999.0,-999,-99.99,,,-99.99,,2013-10-18 05:23:00,
2013-10-18 00:52:00,41.0,-99.9,29.84,West,266,0.0,-999.0,-999,-99.99,,,-99.99,,2013-10-18 05:52:00,
2013-10-18 01:22:00,40.0,-99.9,29.84,West,266,0.0,-999.0,-999,-99.99,,,-99.99,,2013-10-18 06:22:00,
2013-10-18 01:52:00,42.0,-99.9,29.84,West,266,0.0,-999.0,-999,-99.99,,,-99.99,,2013-10-18 06:52:00,
2013-10-18 02:22:00,41.0,-99.9,29.84,West,266,0.0,-999.0,-999,-99.99,,,-99.99,,2013-10-18 07:22:00,
2013-10-18 02:52:00,41.0,-99.9,29.83,SSW,207,1.0,-999.0,-999,-99.99,,,-99.99,,2013-10-18 07:52:00,
2013-10-18 03:22:00,41.0,-99.9,29.83,SSW,207,0.0,-999.0,-999,-99.99,,,-99.99,,2013-10-18 08:22:00,
2013-10-18 03:52:00,40.0,-99.9,29.82,SSW,207,0.0,-999.0,-999,-99.99,,,-99.99,,2013-10-18 08:52:00,
2013-10-18 04:22:00,40.0,-99.9,29.83,SSW,207,0.0,-999.0,-999,-99.99,,,-99.99,,2013-10-18 09:22:00,
2013-10-18 04:53:00,41.0,-99.9,29.82,SSW,207,0.0,-999.0,-999,-99.99,,,-99.99,,2013-10-18 09:53:00,
2013-10-18 05:23:00,39.0,-99.9,29.82,SSW,207,0.0,-999.0,-999,-99.99,,,-99.99,,2013-10-18 10:23:00,
2013-10-18 05:53:00,39.0,-99.9,29.83,SSW,207,0.0,-999.0,-999,-99.99,,,-99.99,,2013-10-18 10:53:00,
2013-10-18 06:22:00,39.0,-99.9,29.83,SSW,207,0.0,-999.0,-999,-99.99,,,-99.99,,2013-10-18 11:22:00,
2013-10-18 06:52:00,40.0,-99.9,29.83,SSW,207,0.0,-999.0,-999,-99.99,,,-99.99,,2013-10-18 11:52:00,
2013-10-18 07:22:00,39.0,-99.9,29.83,SSW,207,0.0,-999.0,-999,-99.99,,,-99.99,,2013-10-18 12:22:00,
2013-10-18 07:52:00,40.0,-99.9,29.84,SSW,207,0.0,-999.0,-999,-99.99,,,-99.99,,2013-10-18 12:52:00,
2013-10-18 08:22:00,40.0,-99.9,29.85,SSE,157,0.0,-999.0,-999,-99.99,,,-99.99,,2013-10-18 13:22:00,
2013-10-18 08:52:00,42.0,-99.9,29.86,SSE,160,0.0,-999.0,-999,-99.99,,,-99.99,,2013-10-18 13:52:00,
2013-10-18 09:22:00,45.0,-99.9,29.87,SSE,165,0.0,-999.0,-999,-99.99,,,-99.99,,2013-10-18 14:22:00,
2013-10-18 09:52:00,46.0,-99.9,29.88,SW,229,0.0,-999.0,-999,-99.99,,,-99.99,,2013-10-18 14:52:00,
2013-10-18 10:22:00,48.0,-99.9,29.88,SW,229,0.0,-999.0,-999,-99.99,,,-99.99,,2013-10-18 15:22:00,
2013-10-18 10:54:00,49.0,-99.9,29.89,SW,230,0.0,-999.0,-999,-99.99,,,-99.99,,2013-10-18 15:54:00,
2013-10-18 11:24:00,50.0,-99.9,29.89,WNW,292,0.0,-999.0,-999,-99.99,,,-99.99,,2013-10-18 16:24:00,
2013-10-18 11:53:00,50.0,-99.9,29.90,WNW,297,0.0,-999.0,-999,-99.99,,,-99.99,,2013-10-18 16:53:00,
2013-10-18 12:22:00,47.0,-99.9,29.91,WNW,291,1.0,-999.0,-999,-99.99,,,-99.99,,2013-10-18 17:22:00,
2013-10-18 12:52:00,46.0,-99.9,29.90,WNW,292,0.0,-999.0,-999,-99.99,,,-99.99,,2013-10-18 17:52:00,
2013-10-18 13:22:00,46.0,-99.9,29.90,WSW,241,0.0,-999.0,-999,-99.99,,,-99.99,,2013-10-18 18:22:00,
2013-10-18 13:52:00,45.0,-99.9,29.90,WSW,253,0.0,-999.0,-999,-99.99,,,-99.99,,2013-10-18 18:52:00,
2013-10-18 14:22:00,46.0,-99.9,29.90,SW,232,0.0,-999.0,-999,-99.99,,,-99.99,,2013-10-18 19:22:00,
2013-10-18 14:52:00,46.0,-99.9,29.89,SW,234,0.0,-999.0,-999,-99.99,,,-99.99,,2013-10-18 19:52:00,
2013-10-18 15:22:00,47.0,-99.9,29.88,SW,229,0.0,-999.0,-999,-99.99,,,-99.99,,2013-10-18 20:22:00,
2013-10-18 15:52:00,47.0,-99.9,29.89,WSW,239,0.0,-999.0,-999,-99.99,,,-99.99,,2013-10-18 20:52:00,
2013-10-18 16:22:00,46.0,-99.9,29.90,WSW,238,0.0,-999.0,-999,-99.99,,,-99.99,,2013-10-18 21:22:00,
2013-10-18 16:54:00,46.0,-99.9,29.90,WSW,238,0.0,-999.0,-999,-99.99,,,-99.99,,2013-10-18 21:54:00,
2013-10-18 17:24:00,46.0,-99.9,29.91,SW,234,0.0,-999.0,-999,-99.99,,,-99.99,,2013-10-18 22:24:00,
2013-10-18 17:54:00,45.0,-99.9,29.91,SW,235,0.0,-999.0,-999,-99.99,,,-99.99,,2013-10-18 22:54:00,
2013-10-18 18:23:00,46.0,-99.9,29.91,SSW,202,0.0,-999.0,-999,-99.99,,,-99.99,,2013-10-18 23:23:00,
2013-10-18 18:53:00,46.0,-99.9,29.91,SW,219,0.0,-999.0,-999,-99.99,,,-99.99,,2013-10-18 23:53:00,
2013-10-18 19:12:00,46.0,-99.9,29.92,SW,219,0.0,-999.0,-999,-99.99,,,-99.99,,2013-10-19 00:12:00,
2013-10-18 19:22:00,46.0,-99.9,29.93,SW,219,0.0,-999.0,-999,-99.99,,,-99.99,,2013-10-19 00:22:00,
2013-10-18 19:52:00,45.0,-99.9,29.92,SW,219,0.0,-999.0,-999,-99.99,,,-99.99,,2013-10-19 00:52:00,
2013-10-18 20:22:00,45.0,-99.9,29.92,SW,219,0.0,-999.0,-999,-99.99,,,-99.99,,2013-10-19 01:22:00,
2013-10-18 20:53:00,45.0,-99.9,29.93,SW,220,0.0,-999.0,-999,-99.99,,,-99.99,,2013-10-19 01:53:00,
2013-10-18 21:22:00,45.0,-99.9,29.92,SW,220,0.0,-999.0,-999,-99.99,,,-99.99,,2013-10-19 02:22:00,
2013-10-18 21:42:00,45.0,-99.9,29.91,SW,220,0.0,-999.0,-999,-99.99,,,-99.99,,2013-10-19 02:42:00,
2013-10-18 21:52:00,45.0,-99.9,29.91,SW,220,0.0,-999.0,-999,-99.99,,,-99.99,,2013-10-19 02:52:00,
2013-10-18 22:23:00,44.0,-99.9,30.15,SW,219,0.0,-999.0,-999,-99.99,,,-99.99,,2013-10-19 03:23:00,
2013-10-18 22:55:00,44.0,-99.9,29.91,SW,220,0.0,-999.0,-999,-99.99,,,-99.99,,2013-10-19 03:55:00,
2013-10-18 23:24:00,44.0,-99.9,29.91,SW,221,0.0,-999.0,-999,-99.99,,,-99.99,,2013-10-19 04:24:00,
2013-10-18 23:44:00,44.0,-99.9,29.91,SW,221,0.0,-999.0,-999,-99.99,,,-99.99,,2013-10-19 04:44:00,
2013-10-18 23:54:00,45.0,-99.9,29.90,SW,221,0.0,-999.0,-999,-99.99,,,-99.99,,2013-10-19 04:54:00,